Flag for U.S.A. Weather past 2 weeks in Cape Coral, Florida, U.S.A.

Now
76 °F

Clear.


Feels Like: 75 °F
Forecast: 77 / 90 °F
Wind: 3 mph from Southeast

Location: Page Field

Current Time: Sep 1, 2015 at 4:56:30 AM

Latest Report: Sep 1, 2015 at 3:53 AM


Visibility: 7 mi

Pressure: 30.01 "Hg

Humidity: 100%

Dew point: 76 °F

Location of Cape CoralLocation

Historic Weather in Cape Coral — Graph

°F

Cape Coral temperature yesterday

Maximum temperature yesterday: 84 °F (at 10:53 AM)
Minimum temperature yesterday: 76 °F (at 12:53 AM)
Average temperature yesterday: 79 °F

Past Weeks' High & Low Weather Summary

 TemperatureHumidityPressure
High95 °F (Aug 23, 4:53 PM)100% (Aug 26, 10:53 PM)30.09 "Hg (Aug 26, 10:53 PM)
Low73 °F (Aug 17, 6:53 PM)44% (Aug 24, 1:53 PM)29.85 "Hg (Aug 24, 6:53 PM)
Average81 °F82%29.98 "Hg
* Reported Aug 17 2:53 AM — Sep 1 2:53 AM, Cape Coral, Weather by CustomWeather, © 2015

Note: Actual official high and low records may vary slightly from our data, if they occured in-between our weather recording intervals... More about our weather records

Advertising

Cape Coral weather history for previous 24 hours

 ConditionsComfort  
Time TempWeatherWind HumidityBarometerVisibility
2:53 AM
Tue, Sep 1
76 °FClear.5 mph97%30.03 "Hg8 mi
1:53 AM76 °FClear.No wind100%30.04 "Hg9 mi
12:53 AM77 °FClear.No wind100%30.06 "Hg9 mi
10:53 PM
Mon, Aug 31
77 °FClear.3 mph100%30.07 "Hg10 mi
9:53 PM77 °FClear.3 mph96%30.06 "Hg10 mi
8:53 PM77 °FClear.3 mph96%30.03 "Hg10 mi
7:53 PM78 °FBroken clouds.3 mph93%30.02 "Hg10 mi
6:53 PM77 °FPartly sunny.3 mph96%30.03 "Hg10 mi
5:53 PM80 °FHeavy rain. Fog.6 mph87%30.02 "Hg2 mi
4:53 PM80 °FPassing clouds.7 mph81%30.02 "Hg10 mi
3:53 PM81 °FScattered clouds.8 mph85%30.02 "Hg10 mi
2:53 PM80 °FSunny.5 mph87%30.02 "Hg10 mi
1:53 PM79 °FLight rain. Scattered clouds.5 mph88%30.04 "Hg10 mi
12:53 PM79 °FLight rain. Scattered clouds.7 mph88%30.05 "Hg10 mi
11:53 AM83 °FScattered clouds.10 mph77%30.05 "Hg10 mi
10:53 AM84 °FPassing clouds.12 mph72%30.04 "Hg10 mi
9:53 AM82 °FSunny.10 mph82%30.02 "Hg10 mi
8:53 AM81 °FSunny.8 mph85%30.01 "Hg10 mi
7:53 AM78 °FClear.6 mph93%30.00 "Hg10 mi
6:53 AM76 °FClear.8 mph97%29.97 "Hg10 mi
5:53 AM77 °FClear.7 mph94%29.97 "Hg10 mi
4:53 AM76 °FClear.7 mph100%29.97 "Hg10 mi
Weather by CustomWeather, © 2015

See weather overviewHow to use our weather pages